SCP
0 0 0 0 0 0 0 0 0 0 0 0 0 0 0 0 0 0 0 0 0 0 0 0 0 0 0 0 0 0 0 0 0 0 1 1 1 1 1 1 1 1 1
0 0 0 0 0 0 1 0 0 1 1 0 0 0 1 1 1 1 1 1 1 1 1 1 1 0 0 0 0 0 0 0 0 0 1 1 1 1 1 1 1 1 1
0 0 1 1 1 1 1 1 1 1 1 1 1 1 1 1 1 1 1 1 1 1 1 1 1 1 1 0 0 0 0 0 0 0 0 1 1 1 1 1 1 1 1
0 1 1 1 1 1 1 1 1 2 2 2 2 1 1 1 1 1 1 1 1 1 1 2 2 1 1 1 0 0 0 0 0 0 0 0 1 1 1 1 1 1 1
1 1 1 2 2 2 2 2 2 2 2 2 2 1 1 1 1 1 1 1 1 1 1 2 2 2 2 1 1 0 0 0 0 0 0 0 0 1 1 1 1 1 1
2 2 2 2 2 2 2 2 2 2 2 2 1 1 1 1 1 1 1 1 1 1 1 1 2 2 2 1 1 1 0 0 0 0 0 0 0 1 1 1 1 1 1
2 2 2 2 2 2 2 2 2 2 1 1 1 1 1 0 0 0 0 0 0 1 1 1 1 1 1 1 1 1 1 1 0 0 0 0 0 0 0 0 0 0 0
1 1 1 1 1 1 1 1 1 1 1 1 1 0 0 0 0 0 0 0 0 0 0 0 1 1 1 1 1 2 1 1 1 0 0 0 0 0 0 0 0 0 0
1 1 1 1 1 1 1 1 1 1 1 0 0 0 0 0 0 0 0 0 0 0 0 0 0 0 1 1 1 2 2 2 1 1 0 0 0 0 0 0 0 0 0
1 1 1 1 1 1 1 1 1 1 0 0 0 0 0 0 0 0 0 0 0 0 0 0 0 0 1 1 1 2 2 2 2 1 1 1 0 0 0 0 0 0 0
1 1 1 1 1 1 1 1 0 0 0 0 0 0 0 0 0 0 0 0 0 0 0 0 0 0 0 0 1 1 2 2 2 2 1 1 1 0 0 0 0 0 0
0 0 1 1 1 1 0 0 0 0 0 0 0 0 0 0 0 0 0 0 0 0 0 0 0 0 0 0 1 1 1 2 1 1 1 1 0 0 0 0 0 0 0
0 0 0 0 0 0 0 0 0 0 0 0 0 0 0 0 0 0 0 0 0 0 0 0 0 0 0 0 0 1 1 1 1 1 0 0 0 0 0 0 0 0 0
0 0 0 0 0 0 0 0 0 0 0 0 0 0 0 0 0 0 0 0 0 0 0 0 0 0 0 0 0 0 0 0 0 0 0 0 0 0 0 0 0 0 0
0 0 0 0 0 0 0 0 0 0 0 0 0 0 0 0 0 0 0 0 0 0 0 0 0 0 0 0 0 0 0 0 0 0 0 0 0 0 0 0 0 0 0
0 0 0 0 0 0 0 0 0 0 0 0 0 0 0 0 0 0 0 0 0 0 0 0 0 0 0 0 0 0 0 0 0 0 0 0 0 0 0 0 0 0 0
0 0 0 0 0 0 0 0 0 0 0 0 0 0 0 0 0 0 0 0 0 0 0 0 0 0 0 0 0 0 0 0 0 0 0 0 0 0 0 0 0 0 0
0 0 0 0 0 0 0 0 0 0 0 0 0 0 0 0 0 0 0 0 0 0 0 0 0 0 0 0 0 0 0 0 0 0 0 0 0 0 0 0 0 0 0
0 0 0 0 0 0 0 0 0 0 0 0 0 0 0 0 0 0 0 0 0 0 0 0 0 0 0 0 0 0 0 0 0 0 0 0 0 0 0 0 0 0 0
0 0 0 0 0 0 0 0 0 0 0 0 0 0 0 0 0 0 0 0 0 0 0 0 0 0 0 0 0 0 0 0 0 0 0 0 0 0 0 0 0 0 0
0 0 0 0 0 0 0 0 0 0 0 0 0 0 0 0 0 0 0 0 0 0 0 0 0 0 0 0 0 0 0 0 0 0 0 0 0 0 0 0 0 0 0
0 0 0 0 0 0 0 0 0 0 0 0 0 0 0 0 0 0 0 0 0 0 0 0 0 0 0 0 0 0 0 0 0 0 0 0 0 0 0 0 0 0 0
0 0 0 0 0 0 0 0 0 0 0 0 0 0 0 0 0 0 0 0 0 0 0 0 0 0 0 0 0 0 0 0 0 0 0 0 0 0 0 0 0 0 0
0 0 0 0 0 0 0 0 0 0 0 0 0 0 0 -0 -0 -0 0 0 0 0 0 0 0 0 0 0 0 0 0 0 0 0 0 0 0 0 0 0 0 0 0
0 0 0 0 0 0 0 0 0 0 0 0 0 0 0 -0 -0 -0 0 0 0 0 0 0 0 0 0 0 0 0 0 0 0 0 0 0 0 0 0 0 0 0 0
0 0 0 0 0 0 0 0 0 0 0 0 0 0 0 0 -0 0 0 0 0 0 0 0 0 0 0 0 0 0 0 0 0 0 0 0 0 0 0 0 0 0 0
Wind_Speed
1 2 2 2 2 2 3 2 3 1 2 5 5 4 4 4 4 4 3 11 13 13 14 14 13 12 11 9 8 8 8 8 8 8 8 7 8 9 10 11 12 14 16
4 2 0 1 3 3 4 3 5 4 3 4 5 5 5 5 5 4 4 7 14 15 16 17 16 15 14 12 10 10 9 10 10 9 9 8 8 8 9 10 12 14 15
3 3 3 1 2 2 2 2 4 4 4 6 5 5 5 5 5 5 5 4 6 14 20 19 17 16 15 14 13 13 12 12 11 11 11 11 10 9 9 9 11 13 14
1 2 4 2 2 2 3 3 3 3 4 4 4 5 6 6 7 7 6 6 6 7 11 19 20 19 19 18 17 16 15 13 13 13 13 13 12 11 10 10 10 11 13
3 2 3 3 3 3 3 5 4 4 5 6 6 7 6 6 6 8 7 8 8 8 7 12 21 24 22 21 19 18 17 16 14 14 14 15 13 12 11 11 11 11 12
5 4 4 5 5 3 3 4 5 4 4 5 9 9 6 7 7 8 10 10 8 10 11 11 8 14 22 22 21 21 20 18 16 15 15 15 14 13 12 12 12 12 13
6 4 4 5 4 4 4 5 4 5 5 5 6 7 6 7 8 8 8 9 10 9 6 5 3 4 7 19 22 21 20 20 18 16 16 16 15 14 13 13 13 14 14
4 4 4 4 4 4 6 5 4 4 6 6 6 7 9 8 7 10 6 7 8 6 7 10 7 6 7 5 9 20 22 21 21 19 18 16 14 14 16 16 17 18 17
3 2 3 3 3 4 5 6 6 7 6 6 6 7 10 12 8 7 9 9 8 7 7 7 9 8 9 6 6 11 19 20 21 20 19 16 14 16 19 20 21 20 20
5 4 4 4 3 4 5 7 7 7 7 9 7 7 8 10 12 12 8 6 9 9 9 10 9 8 7 5 7 11 13 15 16 17 18 18 16 17 19 21 22 22 22
6 6 5 4 5 5 6 7 8 8 7 9 9 9 10 10 11 12 14 8 7 6 6 5 5 6 6 6 6 7 8 5 6 8 12 14 16 18 20 22 23 24 23
6 8 8 7 7 6 7 7 7 9 8 9 9 9 9 10 10 11 13 12 10 8 8 7 7 6 7 6 10 16 13 8 5 3 4 8 13 17 19 22 24 25 25
6 7 9 7 8 8 8 8 8 8 8 9 8 7 7 7 8 9 10 11 12 10 10 8 7 6 8 6 7 17 13 8 4 3 3 5 10 15 19 22 24 26 26
7 8 8 8 9 9 10 8 8 8 7 7 9 8 6 7 6 6 7 8 11 9 9 9 7 7 6 5 8 12 7 6 3 4 4 5 9 14 18 22 24 26 27
9 9 9 8 8 8 8 7 6 7 7 7 7 8 7 6 6 6 6 6 7 9 8 7 6 6 6 5 7 5 4 2 5 6 5 7 10 14 18 22 25 27 27
8 8 8 8 7 7 7 7 6 6 7 7 6 8 7 6 6 6 6 6 6 8 8 4 6 8 8 9 12 6 2 4 6 6 7 10 13 17 20 23 26 28 29
8 8 8 7 8 8 7 6 7 7 8 8 8 9 9 8 7 6 5 6 6 7 9 6 6 7 7 7 7 4 1 2 3 9 11 13 17 21 25 26 27 28 28
7 8 8 8 9 8 6 7 9 10 11 12 11 10 10 9 8 7 6 7 7 7 8 10 7 6 6 6 4 1 2 3 2 9 13 17 21 25 29 30 25 23 24
8 7 7 8 8 7 8 10 11 12 13 13 12 11 11 10 10 8 7 7 7 7 7 8 8 5 4 3 2 4 6 4 5 8 12 16 22 28 33 29 15 11 16
7 7 7 7 7 8 10 12 14 14 14 13 13 12 11 10 10 8 7 7 7 8 8 8 7 5 4 2 3 4 4 4 5 6 10 13 20 26 32 26 12 15 20
8 7 7 7 8 6 10 13 15 16 15 15 13 11 11 13 11 8 9 9 9 9 8 7 7 5 4 3 3 4 6 5 5 5 6 9 11 13 18 22 21 27 31
7 7 7 8 8 7 9 17 19 16 15 14 12 10 10 9 12 15 18 19 18 14 10 8 6 5 4 4 6 7 5 3 3 4 6 9 9 11 13 14 26 33 36
7 7 6 6 7 5 8 14 24 18 14 11 11 10 9 10 11 12 17 21 19 19 18 11 7 6 5 6 9 7 6 7 6 3 5 8 8 11 11 17 30 33 35
6 5 5 6 6 6 9 13 23 16 12 12 12 11 9 10 12 15 15 15 13 11 9 8 6 4 7 9 9 11 12 11 9 7 6 7 7 9 11 12 26 30 33
5 5 5 5 6 6 9 13 19 13 11 13 13 12 10 11 17 20 15 14 12 6 1 6 6 10 16 17 15 11 10 10 10 6 4 6 7 9 10 11 18 28 30
5 6 6 5 6 7 9 12 18 11 12 12 11 11 12 15 20 18 12 11 9 4 4 9 13 17 16 15 12 8 7 10 10 7 4 4 5 4 8 8 8 9 15
Wind_Direction
82 82 54 28 267 180 178 259 305 42 4 300 276 281 309 319 302 277 159 191 199 204 210 215 219 224 231 241 256 269 279 287 294 299 303 308 312 305 289 272 258 248 241
42 25 4 26 321 355 46 3 329 324 297 281 297 295 283 279 273 276 256 209 207 216 222 224 224 223 225 230 239 250 260 270 278 285 289 292 297 305 305 292 273 257 246
52 358 312 223 289 348 358 284 275 285 280 274 266 269 275 272 278 275 272 270 233 222 225 227 228 228 229 230 233 239 247 257 266 276 282 287 289 291 296 302 295 276 257
22 348 313 322 4 333 309 282 272 294 301 311 315 314 309 300 287 276 267 261 261 262 231 221 225 225 228 230 232 236 241 247 258 268 276 281 284 286 290 294 298 295 278
11 358 322 348 341 324 319 324 6 356 331 327 313 295 285 284 290 295 293 283 272 263 259 230 220 220 224 229 233 238 240 241 250 262 272 278 281 281 282 288 292 295 292
24 14 336 8 350 337 350 1 332 319 312 301 295 294 297 291 284 277 275 274 269 263 258 255 228 219 224 231 235 239 241 241 246 257 268 278 283 281 279 282 287 290 291
29 3 351 350 334 342 344 316 311 313 304 295 290 285 279 279 282 277 269 266 265 267 274 272 257 234 224 230 234 239 243 245 249 254 263 274 281 283 282 282 284 286 286
10 338 17 330 340 336 308 302 318 301 292 290 293 301 297 287 273 282 291 295 306 318 310 297 282 264 257 244 225 227 235 243 249 253 262 271 275 281 284 285 284 284 284
316 312 304 297 312 304 302 327 309 295 305 310 299 290 290 289 291 290 289 290 292 292 290 291 282 274 264 255 243 230 227 228 241 254 263 270 271 275 280 283 283 283 282
315 312 299 298 305 306 310 309 323 335 315 302 296 289 287 295 298 296 277 275 279 278 271 274 275 275 276 272 260 249 236 221 230 248 263 270 271 271 275 279 281 281 280
329 326 327 341 342 326 322 325 320 314 308 300 299 300 300 299 294 289 291 292 283 282 290 299 315 314 319 320 318 328 318 268 245 257 267 274 274 273 274 276 278 277 276
325 329 338 358 342 329 323 318 312 306 302 300 300 298 298 298 299 298 299 303 301 306 316 324 322 322 322 332 335 339 337 334 335 314 290 281 277 275 274 275 275 275 273
318 334 346 339 334 330 323 317 314 309 306 306 306 301 301 298 299 299 299 301 302 304 307 308 313 317 317 331 338 336 330 341 5 26 355 308 289 283 279 275 273 272 270
326 339 342 338 330 322 316 317 311 306 306 309 303 301 294 289 288 288 289 296 296 293 290 292 301 305 310 319 328 332 327 337 54 52 22 337 311 298 288 280 273 268 264
324 336 330 318 314 311 306 304 298 297 297 293 292 291 288 285 283 279 277 273 280 288 287 284 288 292 300 304 309 312 318 54 79 63 32 356 332 315 301 288 276 266 258
326 319 316 316 311 305 300 298 299 297 296 292 288 285 283 280 278 278 276 274 270 275 279 266 279 287 293 295 299 300 262 128 95 66 31 4 345 330 316 299 280 264 252
323 318 317 313 309 305 306 310 312 315 315 309 303 298 293 289 282 278 274 270 268 267 276 277 271 278 279 283 289 284 199 129 83 51 26 8 353 342 330 312 286 261 244
320 318 315 312 312 320 334 347 347 339 326 316 308 302 296 291 284 277 270 267 266 260 268 277 278 275 271 273 275 252 103 95 58 32 17 7 358 349 339 321 291 251 226
319 318 319 323 332 353 13 6 349 335 321 311 306 302 296 290 285 279 275 272 270 269 261 269 274 269 261 249 206 103 80 55 44 25 16 8 1 356 347 334 308 211 182
319 328 333 340 356 21 22 0 344 329 317 310 302 295 292 289 284 285 287 282 281 278 270 266 266 262 245 205 144 118 96 63 46 30 24 14 6 3 356 356 28 108 119
336 340 343 353 3 28 19 358 343 331 318 306 300 299 302 305 312 315 306 298 291 280 271 264 259 252 224 175 140 123 115 102 64 36 35 21 8 8 2 9 44 85 96
341 344 350 359 11 30 6 356 349 328 313 307 312 316 314 318 335 324 314 305 294 281 268 252 245 238 203 148 132 136 136 129 81 32 47 37 22 23 16 21 48 70 83
343 345 354 10 20 40 6 353 348 331 316 320 324 321 324 333 334 327 314 307 296 283 267 246 230 217 171 144 139 130 99 86 85 71 63 53 33 38 28 37 52 65 76
338 339 355 13 13 21 12 355 347 332 325 329 323 320 328 336 335 327 314 306 300 289 263 223 211 184 142 133 124 118 112 102 85 65 59 71 53 54 46 45 56 66 75
334 338 354 4 4 9 13 357 352 332 331 328 323 327 337 339 331 328 319 312 314 315 272 163 146 125 122 122 125 123 123 113 100 81 58 80 83 77 66 61 64 72 78
338 338 354 3 13 10 10 5 350 337 333 328 323 327 337 337 331 329 322 318 323 342 97 109 107 106 109 108 105 110 120 121 118 102 90 101 111 96 80 67 69 71 77